Flag for Algeria Weather past 2 weeks in Oran, Algeria

Now
63 °F

Clear.


Feels Like: 63 °F
Forecast: 63 / 75 °F
Wind: No wind

Location: Oran / Es Senia

Current Time: May 7, 2015 at 1:35:45 AM

Latest Report: May 7, 2015 at 1:00 AM


Visibility: 10 mi

Pressure: 30.07 "Hg

Humidity: 64%

Dew point: 50 °F

Location of OranLocation

Historic Weather in Oran — Graph

°F

Oran temperature yesterday

Maximum temperature yesterday: 79 °F (at 12:30 PM)
Minimum temperature yesterday: 61 °F (at 3:00 AM)
Average temperature yesterday: 69 °F

Past Weeks' High & Low Weather Summary

 TemperatureHumidityPressure
High90 °F (May 3, 12:30 PM)94% (Apr 22, 4:00 AM)30.15 "Hg (Apr 22, 4:00 AM)
Low50 °F (Apr 30, 7:00 AM)28% (Apr 29, 3:00 PM)29.74 "Hg (May 4, 2:00 PM)
Average68 °F64%30.00 "Hg
* Reported Midnight between Apr 21 and Apr 22 — May 7 12:30 AM, Oran, Weather by CustomWeather, © 2015

Note: Actual official high and low records may vary slightly from our data, if they occured in-between our weather recording intervals... More about our weather records

Advertising

Oran weather history for previous 24 hours

 ConditionsComfort  
Time TempWeatherWind HumidityBarometerVisibility
12:30 AM
Thu, May 7
63 °FClear.3 mph73%30.07 "Hg10 mi
12:00 AM64 °FClear.2 mph68%30.07 "Hg10 mi
11:30 PM
Wed, May 6
64 °FClear.3 mph68%30.07 "Hg10 mi
11:00 PM64 °FClear.5 mph68%30.07 "Hg10 mi
10:00 PM66 °FClear.6 mph49%30.07 "Hg10 mi
9:30 PM72 °FClear.7 mph38%30.04 "Hg10 mi
9:00 PM72 °FClear.8 mph38%30.04 "Hg10 mi
8:30 PM70 °FClear.6 mph43%30.04 "Hg10 mi
8:00 PM72 °FClear.7 mph41%30.04 "Hg10 mi
7:30 PM72 °FSunny.8 mph44%30.04 "Hg10 mi
7:00 PM72 °FSunny.10 mph44%30.04 "Hg10 mi
6:30 PM73 °FSunny.14 mph44%30.04 "Hg10 mi
6:00 PM73 °FSunny.14 mph47%30.04 "Hg10 mi
5:30 PM75 °FSunny.14 mph44%30.04 "Hg10 mi
5:00 PM75 °FSunny.15 mph47%30.04 "Hg10 mi
4:30 PM75 °FSunny.14 mph47%30.04 "Hg10 mi
4:00 PM75 °FSunny.13 mph50%30.04 "Hg10 mi
3:30 PM77 °FSunny.15 mph42%30.04 "Hg10 mi
3:00 PM77 °FSunny.16 mph39%30.04 "Hg10 mi
2:30 PM77 °FSunny.16 mph39%30.07 "Hg10 mi
2:00 PM77 °FSunny.13 mph42%30.07 "Hg10 mi
1:30 PM77 °FSunny.15 mph42%30.07 "Hg10 mi
1:00 PM79 °FSunny.8 mph37%30.07 "Hg10 mi
12:30 PM79 °FSunny.2 mph39%30.07 "Hg10 mi
12:00 PM77 °FSunny.7 mph44%30.07 "Hg10 mi
11:30 AM75 °FSunny.10 mph44%30.09 "Hg10 mi
11:00 AM73 °FSunny.12 mph50%30.07 "Hg10 mi
10:30 AM73 °FSunny.12 mph53%30.07 "Hg10 mi
10:00 AM70 °FSunny.13 mph60%30.07 "Hg10 mi
9:30 AM70 °FSunny.14 mph64%30.07 "Hg10 mi
9:00 AM68 °FSunny.10 mph73%30.07 "Hg10 mi
8:30 AM66 °FSunny.10 mph73%30.07 "Hg10 mi
8:00 AM64 °FSunny.7 mph73%30.04 "Hg10 mi
7:30 AM64 °FBroken clouds.9 mph73%30.01 "HgN/A
7:00 AM64 °FBroken clouds.9 mph73%30.01 "HgN/A
6:30 AM64 °FSunny.9 mph73%30.01 "Hg10 mi
6:00 AM64 °FClear.9 mph73%30.01 "Hg10 mi
5:30 AM63 °FClear.9 mph83%30.01 "Hg10 mi
4:30 AM61 °FClear.2 mph83%30.01 "Hg10 mi
4:00 AM63 °FClear.No wind83%30.01 "Hg10 mi
3:30 AM61 °FClear.2 mph83%30.01 "Hg10 mi
3:00 AM61 °FClear.No wind83%30.01 "Hg10 mi
2:30 AM63 °FClear.3 mph77%30.01 "Hg10 mi
2:00 AM63 °FClear.2 mph77%30.01 "Hg10 mi
1:30 AM63 °FClear.2 mph77%30.01 "Hg10 mi
1:00 AM64 °FClear.2 mph73%30.01 "Hg10 mi
Weather by CustomWeather, © 2015

See weather overviewHow to use our weather pages